Miscellaneous Local Product
Issued by NWS Hastings, NE

Home | Current Version | Previous Version | Graphics & Text | Print | Product List | Glossary On
Versions: 1 2 3 4 5 6 7 8 9 10 11 12 13 14 15 16 17 18 19 20 21 22 23 24 25 26 27 28 29 30 31 32 33 34 35 36 37 38 39 40 41 42 43 44 45 46 47 48 49 50
000
AXUS43 KGID 040302
MISGRI

GID CWA HOURLY WEATHER ROUNDUP
NATIONAL WEATHER SERVICE HASTINGS NE
900 PM CST TUE MAR 03 2015

NOTE: "FAIR" INDICATES FEW OR NO CLOUDS BELOW 12,000 FEET WITH NO
SIGNIFICANT WEATHER AND/OR OBSTRUCTIONS TO VISIBILITY.

...SOUTH CENTRAL NEBRASKA...

CITY           SKY/WX    TMP DP  RH WIND       PRES   REMARKS
GRAND ISLAND   PTCLDY    20   4  50 N12       30.09R WCI   8
HASTINGS       MOCLDY    21   4  47 N15G23    30.05R WCI   8
KEARNEY        MOCLDY    19   3  49 N14       30.05R WCI   6
ORD            MOCLDY    18   2  49 N7        30.06R WCI   9
YORK           PTCLDY    19   9  63 N16       30.05R WCI   5
AURORA         CLEAR     20   5  50 N13       30.05R WCI   8
LEXINGTON      CLOUDY    23   3  41 N12       30.04R WCI  12
HOLDREGE       MOCLDY    21   1  42 N12       30.02R WCI   9
HEBRON         CLEAR     25   4  40 N10G16    30.05R WCI  15

...NEBRASKA PANHANDLE...

CITY           SKY/WX    TMP DP  RH WIND       PRES   REMARKS
CHADRON        CLOUDY    15   5  64 W10       30.03R WCI   2
ALLIANCE       LGT SNOW  16  11  80 NW10      29.98R WCI   4
SCOTTSBLUFF    CLOUDY    17   9  70 NW13      30.00R WCI   4
SIDNEY         LGT SNOW  15  11  83 N12       29.97R VSB 1   WCI   2

...WESTERN AND NORTH CENTRAL NEBRASKA...

CITY           SKY/WX    TMP DP  RH WIND       PRES   REMARKS
VALENTINE      MOCLDY    13   4  67 W6        30.06R WCI   4
AINSWORTH      CLOUDY    16   2  54 NW10      30.05R WCI   3
ONEILL         MOCLDY    15   6  65 NW6       30.06R WCI   7
BROKEN BOW     CLOUDY    19   5  54 N10       30.03R WCI   7
IMPERIAL         N/A     21   8  57 NE12      30.02R WCI   9
NORTH PLATTE   CLOUDY    20   3  48 N9        30.05R WCI   9
MCCOOK         CLOUDY    26   5  40 N13       30.04R WCI  15

...EASTERN NEBRASKA...

CITY           SKY/WX    TMP DP  RH WIND       PRES   REMARKS
NORFOLK        CLEAR     17   4  56 N10       30.07R WCI   5
SO SIOUX CITY  CLEAR     17   5  59 N17       30.09R WCI   1
TEKAMAH        CLEAR     19   7  59 N12       30.11R WCI   7
COLUMBUS       CLEAR     18   0  45 N10       30.09R WCI   6
ALBION         PTCLDY    18   3  51 N8        30.06R WCI   7
OMAHA EPPLEY   PTCLDY    20   7  57 N18G25    30.10R WCI   5
OFFUTT AFB     CLEAR     21   8  56 N10       30.08R WCI  10
MILLARD        CLEAR     22   8  53 NW9       30.09R WCI  12
LINCOLN        CLEAR     20   6  55 N13       30.09R WCI   7
NEBRASKA CITY  PTCLDY    25   4  40 N14G22    30.05R WCI  13
BEATRICE       PTCLDY    25   8  48 N10       30.05R WCI  15
FALLS CITY     CLOUDY    29  13  51 N13       30.04R WCI  19

...NORTHERN KANSAS...

CITY           SKY/WX    TMP DP  RH WIND       PRES   REMARKS
GOODLAND       FLURRIES  25  13  60 NE13      29.97R WCI  14
HILL CITY      CLOUDY    27  13  55 N10       30.04R WCI  17
NORTON         CLOUDY    25   0  33 N13       30.04R WCI  13
PHILLIPSBURG   PTCLDY    27  10  50 N7        30.07R WCI  19
SMITH CENTER   CLEAR     21   3  45 N8        30.06R WCI  12
BELOIT         CLEAR     27   9  46 N9        30.05R WCI  17
HAYS           PTCLDY    27   9  46 N10       30.02R WCI  17
RUSSELL        MOCLDY    25  14  63 N10       30.00R WCI  15
CONCORDIA        N/A     27   6  41 N13       30.03R WCI  16
SALINA         MOCLDY    33  17  51 N10       30.03R WCI  25
TOPEKA         CLOUDY    33  21  61 N9        30.00R WCI  25



USA.gov is the U.S. government's official web portal to all federal, state and local government web resources and services.